Location: Key Biscayne
(25.6930°N, 80.1630°W)
Time: 04:28:19
(UTC-04:00)

CZ-2D R/B - Visible Passes

Search period start: 26 August 2016 00:00
Search period end: 05 September 2016 00:00
Orbit: 526 x 542 km, 97.5° (Epoch: 25 August)

Date Brightness Start Highest point End Pass type
(mag) Time Alt. Az. Time Alt. Az. Time Alt. Az.
26 Aug 3.8 20:40:24 17° SE 20:42:57 37° ENE 20:46:32 10° N visible
27 Aug 4.2 20:31:13 14° SE 20:33:48 28° ENE 20:37:09 10° NNE visible
27 Aug 6.2 22:06:41 10° WSW 22:08:12 12° W 22:09:42 10° WNW visible
28 Aug 4.6 20:22:03 11° ESE 20:24:41 21° ENE 20:27:39 10° NNE visible
28 Aug 5.9 21:57:27 13° WSW 21:58:57 16° W 22:01:24 10° WNW visible
29 Aug 5.0 20:13:09 10° ESE 20:15:34 16° ENE 20:17:59 10° NNE visible
29 Aug 5.6 21:48:18 17° SW 21:49:44 21° W 21:52:45 10° NW visible
30 Aug 5.3 20:04:54 10° E 20:06:28 12° ENE 20:08:01 10° NE visible
30 Aug 5.1 21:39:08 22° SW 21:40:32 28° W 21:43:55 10° NW visible
31 Aug 4.5 21:29:58 28° SW 21:31:20 39° W 21:34:58 10° NNW visible
01 Sep 3.9 21:20:49 35° SSW 21:22:08 53° W 21:25:56 10° NNW visible
02 Sep 3.3 21:11:41 40° S 21:12:57 75° WSW 21:16:50 10° NNW visible
03 Sep 3.1 21:02:31 41° SSE 21:03:46 79° ENE 21:07:39 10° N visible
04 Sep 3.3 20:53:22 37° SE 20:54:36 57° ENE 20:58:25 10° N visible
